Weather History for KEWK - October, 2011

Change the Weather History Date:

Friday, October 21, 2011

  Actual Average Record
Temperature  
Mean Temperature 54 °F -  
Max Temperature 73 °F 63 °F 84 °F (2012)
Min Temperature 35 °F 43 °F 35 °F (1997)
Degree Days  
Heating Degree Days 11    
Growing Degree Days 4 (Base 50)    
Moisture  
Dew Point 34 °F    
Average Humidity 46    
Maximum Humidity 75    
Minimum Humidity 27    
Precipitation  
Precipitation 0.00 in - - ()
Sea Level Pressure  
Sea Level Pressure 30.12 in    
Wind  
Wind Speed 9 mph (SSW)    
Max Wind Speed 16 mph    
Max Gust Speed 21 mph    
Visibility 10 miles    
Events      
Averages and records for this station are not official NWS values.
T = Trace of Precipitation, MM = Missing Value Source: NWS Daily Summary

Daily Weather History Graph

Daily Weather History Graph

Search for Another Location

Airport or City:

Trip Planner

Search our weather history database for the weather conditions in past years. The results will help you decide how hot, cold, wet, or windy it might be!

Date:

Astronomy

Oct. 21, 2011 Rise Set
Actual Time 7:43 AM CDT 6:43 PM CDT
Civil Twilight 7:16 AM CDT 7:10 PM CDT
Nautical Twilight 6:45 AM CDT 7:40 PM CDT
Astronomical Twilight 6:15 AM CDT 8:11 PM CDT
Moon 1:40 AM CDT (10/21) 3:23 PM CDT (10/21)
Length of Visible Light 11h 53m
Length of Day
11h 00m
Waning Crescent, 33% of the Moon is Illuminated
Oct 21
Waning Crescent
Oct 26
New
Nov 2
First Quarter
Nov 10
Full
Nov 18
Last Quarter

Hourly Weather History & Observations

Time (CDT) Temp. Windchill Dew Point Humidity Pressure Visibility Wind Dir Wind Speed Gust Speed Precip Events Conditions
12:15 AM 41.0 °F 36.4 °F 28.4 °F 61% 30.11 in 6.0 mi SE 6.9 mph - N/A   Clear
12:35 AM 39.2 °F 34.2 °F 28.4 °F 65% 30.11 in 10.0 mi SE 6.9 mph - N/A   Clear
1:35 AM 39.2 °F 33.6 °F 28.4 °F 65% 30.12 in 10.0 mi SSE 8.1 mph - N/A   Clear
1:55 AM 41.0 °F 35.8 °F 28.4 °F 61% 30.12 in 10.0 mi SSE 8.1 mph - N/A   Clear
2:15 AM 39.2 °F 34.2 °F 28.4 °F 65% 30.12 in 10.0 mi SSE 6.9 mph - N/A   Clear
2:35 AM 41.0 °F 36.4 °F 28.4 °F 61% 30.12 in 10.0 mi SSE 6.9 mph - N/A   Clear
3:15 AM 42.8 °F 37.5 °F 28.4 °F 57% 30.12 in 10.0 mi South 9.2 mph - N/A   Clear
4:55 AM 39.2 °F 33.6 °F 26.6 °F 61% 30.12 in 10.0 mi South 8.1 mph - N/A   Clear
5:15 AM 39.2 °F 34.2 °F 26.6 °F 61% 30.12 in 10.0 mi South 6.9 mph - N/A   Clear
6:55 AM 39.2 °F 35.0 °F 28.4 °F 65% 30.13 in 10.0 mi SSE 5.8 mph - N/A   Clear
7:15 AM 35.6 °F 30.7 °F 28.4 °F 75% 30.13 in 10.0 mi SSE 5.8 mph - N/A   Clear
7:35 AM 35.6 °F 30.7 °F 26.6 °F 70% 30.13 in 10.0 mi SSE 5.8 mph - N/A   Clear
7:55 AM 35.6 °F 30.7 °F 26.6 °F 70% 30.14 in 10.0 mi SSE 5.8 mph - N/A   Clear
8:15 AM 37.4 °F 33.8 °F 28.4 °F 70% 30.15 in 10.0 mi South 4.6 mph - N/A   Clear
8:35 AM 39.2 °F 35.0 °F 30.2 °F 70% 30.15 in 10.0 mi SSE 5.8 mph - N/A   Clear
9:55 AM 53.6 °F - 33.8 °F 47% 30.17 in 10.0 mi SSW 9.2 mph - N/A   Clear
10:15 AM 55.4 °F - 33.8 °F 44% 30.16 in 10.0 mi SSW 12.7 mph - N/A   Clear
10:35 AM 57.2 °F - 35.6 °F 44% 30.16 in 10.0 mi SSW 11.5 mph - N/A   Clear
10:55 AM 59.0 °F - 35.6 °F 42% 30.16 in 10.0 mi SSW 12.7 mph - N/A   Clear
11:15 AM 60.8 °F - 35.6 °F 39% 30.16 in 10.0 mi SW 12.7 mph 16.1 mph N/A   Clear
11:55 AM 62.6 °F - 35.6 °F 37% 30.15 in 10.0 mi SSW 15.0 mph 19.6 mph N/A   Clear
12:15 PM 64.4 °F - 37.4 °F 37% 30.15 in 10.0 mi SW 15.0 mph 18.4 mph N/A   Clear
12:35 PM 66.2 °F - 37.4 °F 35% 30.14 in 10.0 mi SW 13.8 mph 20.7 mph N/A   Clear
12:55 PM 66.2 °F - 37.4 °F 35% 30.13 in 10.0 mi SSW 16.1 mph 19.6 mph N/A   Clear
1:15 PM 68.0 °F - 37.4 °F 33% 30.12 in 10.0 mi SW 16.1 mph - N/A   Clear
1:35 PM 69.8 °F - 35.6 °F 28% 30.12 in 10.0 mi SW 13.8 mph 19.6 mph N/A   Clear
1:55 PM 69.8 °F - 37.4 °F 31% 30.11 in 10.0 mi SW 13.8 mph 18.4 mph N/A   Clear
2:15 PM 71.6 °F - 37.4 °F 29% 30.10 in 10.0 mi WSW 13.8 mph 18.4 mph N/A   Clear
2:55 PM 71.6 °F - 37.4 °F 29% 30.09 in 10.0 mi SW 16.1 mph 20.7 mph N/A   Clear
3:15 PM 73.4 °F - 37.4 °F 27% 30.09 in 10.0 mi WSW 13.8 mph 19.6 mph N/A   Clear
3:35 PM 71.6 °F - 37.4 °F 29% 30.09 in 10.0 mi SW 12.7 mph - N/A   Clear
4:15 PM 71.6 °F - 37.4 °F 29% 30.09 in 10.0 mi SW 9.2 mph - N/A   Clear
4:35 PM 71.6 °F - 37.4 °F 29% 30.08 in 10.0 mi SW 13.8 mph - N/A   Clear
4:55 PM 71.6 °F - 37.4 °F 29% 30.08 in 10.0 mi SW 9.2 mph - N/A   Clear
5:35 PM 71.6 °F - 35.6 °F 27% 30.08 in 10.0 mi SW 12.7 mph - N/A   Clear
6:15 PM 69.8 °F - 35.6 °F 28% 30.08 in 10.0 mi SSW 8.1 mph - N/A   Clear
6:35 PM 66.2 °F - 35.6 °F 32% 30.09 in 10.0 mi SSW 6.9 mph - N/A   Clear
6:55 PM 62.6 °F - 35.6 °F 37% 30.10 in 10.0 mi South 4.6 mph - N/A   Clear
7:15 PM 62.6 °F - 35.6 °F 37% 30.10 in 10.0 mi South 4.6 mph - N/A   Clear
8:15 PM 60.8 °F - 35.6 °F 39% 30.10 in 10.0 mi South 5.8 mph - N/A   Clear
8:35 PM 59.0 °F - 35.6 °F 42% 30.10 in 10.0 mi South 5.8 mph - N/A   Clear
9:15 PM 55.4 °F - 35.6 °F 47% 30.11 in 10.0 mi South 6.9 mph - N/A   Clear
9:55 PM 55.4 °F - 35.6 °F 47% 30.11 in 10.0 mi South 5.8 mph - N/A   Clear
10:15 PM 55.4 °F - 35.6 °F 47% 30.11 in 10.0 mi South 6.9 mph - N/A   Clear
10:55 PM 55.4 °F - 35.6 °F 47% 30.12 in 10.0 mi South 5.8 mph - N/A   Clear
11:15 PM 53.6 °F - 35.6 °F 51% 30.12 in 10.0 mi South 5.8 mph - N/A   Clear
11:55 PM 53.6 °F - 35.6 °F 51% 30.12 in 10.0 mi SSW 5.8 mph - N/A   Clear